Regional Weather Roundup
Issued by NWS

Home | Current Version | Previous Version | Text Only | Print | Product List | Glossary On
Versions: 1 2 3 4 5 6 7 8 9 10 11 12 13 14 15 16 17 18 19 20 21 22 23 24 25 26 27 28 29 30 31 32 33 34 35 36 37 38 39 40 41 42 43 44 45 46 47 48 49 50
000
ASUS43 KIND 261009
RWRIN

WEATHER ROUNDUP FOR INDIANA
NATIONAL WEATHER SERVICE INDIANAPOLIS IN
600 AM EDT SAT JUL 26 2014

NOTE: "FAIR" INDICATES FEW OR NO CLOUDS BELOW 12,000 FEET WITH NO
SIGNIFICANT WEATHER AND/OR OBSTRUCTIONS TO VISIBILITY.

* - STATION DOES NOT REPORT WEATHER SUCH AS PRECIPITATION OR FOG.

+ - STATION NOT QUALITY CONTROLLED BY THE NATIONAL WEATHER SERVICE.
    USE DATA WITH CAUTION...ESPECIALLY DEWPOINT AND RELATIVE
    HUMIDITY OBSERVATIONS.

INZ001>003-010>013-019-020-261100-
NORTHWEST INDIANA

CITY           SKY/WX    TMP DP  RH WIND       PRES   REMARKS
GARY /AIRPORT/ PTCLDY    68  61  77 SW3       29.88S
KNOX *+        CLEAR     59  56  91 SE3       29.88F
LA PORTE +     CLEAR     60  60  99 CALM      29.90S
MICHIGAN CITY+ PTCLDY    63  57  82 CALM      29.88S
MONTICELLO +   CLOUDY    67  60  77 S6        29.90S
RENSSELAER +   MOCLDY    66  63  88 S6        29.89F
VALPARAISO     CLEAR     63  59  87 S3        29.89S

$$

LMZ046-743>745-261100-
SOUTHERN LAKE MICHIGAN

STATION/POSITION TIME  TEMP WIND        PRES
                       AIR  DIR/SP/G
                 (UTC) (F)  (DEG/KT/KT) (MB)
BURNS HARBOR     1000   67  200/  8/ 11 1011.9S
MICHIGAN CITY    1000   66  170/  6/  8   N/A

$$

INZ004-005-014>016-021>024-261100-
NORTH CENTRAL INDIANA

CITY           SKY/WX    TMP DP  RH WIND       PRES   REMARKS
GOSHEN         CLEAR     61  57  87 S6        29.91S
LOGANSPORT +   CLOUDY    66  59  77 S8        29.91F
PERU/GRISSOM   MOCLDY    68  63  85 SW10      29.91F
ROCHESTER +    CLEAR     64  61  88 S3        29.91S
SOUTH BEND     CLEAR     64  58  80 S6        29.89F
WARSAW +       CLEAR     59  57  94 CALM      29.92S

$$

INZ006>009-017-018-025>027-261100-
NORTHEAST INDIANA

CITY           SKY/WX    TMP DP  RH WIND       PRES   REMARKS
ANGOLA *+      PTCLDY    57  55  94 S3        29.93S
AUBURN +       MOCLDY    61  55  82 CALM      29.93S
FORT WAYNE     MOCLDY    60  57  89 S5        29.93S
HUNTINGTON +   CLEAR     61  59  94 CALM      29.92F

$$

INZ028-029-035-036-043>045-051>053-261100-
WEST CENTRAL INDIANA

CITY           SKY/WX    TMP DP  RH WIND       PRES   REMARKS
GREENCASTLE +  CLOUDY    66  59  77 S3        29.94S
LAFAYETTE      CLOUDY    67  60  78 S3        29.90F
TERRE HAUTE    CLOUDY    69  60  73 S7        29.92F

$$

INZ030>032-037>040-046>048-054>057-064-065-261100-
CENTRAL INDIANA

CITY           SKY/WX    TMP DP  RH WIND       PRES   REMARKS
CP ATTERBURY + CLOUDY    64  61  88 CALM      29.96S
INDIANAPOLIS   CLOUDY    68  60  75 S6        29.93S
-EAGLE CREEK   CLOUDY    68  59  73 S6        29.93S
KOKOMO *+      CLOUDY    70  57  64 SW9       29.92F
MARION +       MOCLDY    62  60  91 S5        29.93F
MT COMFORT *+  PTCLDY    66  66 100 S3        29.94F
SHELBYVILLE    CLOUDY    68  62  81 S9        29.94F
ZIONSVILLE +   CLOUDY    69  58  67 S6        29.94S

$$

INZ033-034-041-042-049-050-058-059-261100-
EAST CENTRAL INDIANA

CITY           SKY/WX    TMP DP  RH WIND       PRES   REMARKS
MUNCIE         CLOUDY    68  60  75 SW6       29.93F

$$

INZ060-061-067>069-081>083-085>088-261100-
SOUTHWEST INDIANA

CITY           SKY/WX    TMP DP  RH WIND       PRES   REMARKS
EVANSVILLE     CLEAR     67  60  78 S3        29.96S
HUNTINGBURG *+ CLEAR     64  57  77 SW6       29.97S
WASHINGTON +   CLEAR     63  61  93 S5        29.94S

$$

INZ062-063-066-070>080-084-089>092-261100-
SOUTH CENTRAL AND SOUTHEAST INDIANA

CITY           SKY/WX    TMP DP  RH WIND       PRES   REMARKS
BEDFORD +      CLOUDY    64  59  82 S5        29.95
BLOOMINGTON    CLOUDY    69  58  67 S7        29.95S

$$



USA.gov is the U.S. government's official web portal to all federal, state and local government web resources and services.